Sivas, Turkey

6:48 AM +03 on May 30, 2017 (GMT +0300)
Sivas

Weather History for LTAR - March, 2014

Change the Weather History Date:

Tuesday, March 11, 2014

  Actual Average Record
Temperature  
Mean Temperature 40 °F -  
Max Temperature 48 °F 51 °F - ()
Min Temperature 33 °F 32 °F - ()
Degree Days  
Heating Degree Days 24    
Moisture  
Dew Point 35 °F    
Average Humidity 82    
Maximum Humidity 100    
Minimum Humidity 52    
Precipitation  
Precipitation 0.12 in 0.06 in - ()
Sea Level Pressure  
Sea Level Pressure 29.80 in    
Wind  
Wind Speed 9 mph ()    
Max Wind Speed 21 mph    
Max Gust Speed -    
Visibility 6.5 miles    
Events Rain , Snow    
T = Trace of Precipitation, MM = Missing Value Source: Averaged Metar Reports

Daily Weather History Graph

Daily Weather History Graph

Search for Another Location

Airport or City:

Trip Planner

Search our weather history database for the weather conditions in past years. The results will help you decide how hot, cold, wet, or windy it might be!

Date:

Astronomy

Mar. 11, 2014 Rise Set
Actual Time 5:50 AM EET 5:34 PM EET
Civil Twilight 5:23 AM EET 6:01 PM EET
Nautical Twilight 4:52 AM EET 6:33 PM EET
Astronomical Twilight 4:21 AM EET 7:04 PM EET
Moon 12:53 PM EET (3/11) 2:29 AM EET (3/11)
Length of Visible Light 12h 37m
Length of Day
11h 44m
Waxing Gibbous, 76% of the Moon is Illuminated
Mar 11
Waxing Gibbous
Mar 16
Full
Mar 24
Last Quarter
Mar 30
New
Apr 7
First Quarter

Hourly Weather History & Observations

Time (EET) Temp. Windchill Dew Point Humidity Pressure Visibility Wind Dir Wind Speed Gust Speed Precip Events Conditions
2:50 AM 32.0 °F 22.5 °F 32.0 °F 100% 29.71 in 2.5 mi SW 12.7 mph - N/A Snow Light Snow
3:50 AM 32.0 °F 24.2 °F 32.0 °F 100% 29.71 in 2.5 mi SSW 9.2 mph - N/A Snow Light Snow
4:50 AM 32.0 °F 24.2 °F 32.0 °F 100% 29.71 in 2.5 mi SSW 9.2 mph - N/A Snow Light Snow
5:50 AM 32.0 °F 25.6 °F 32.0 °F 100% 29.71 in 2.5 mi SSW 6.9 mph - N/A Snow Light Snow
7:50 AM 33.8 °F 23.2 °F 33.8 °F 100% 29.77 in 4.3 mi SW 17.3 mph - N/A   Overcast
8:00 AM 40 °F - 36 °F 79%  in 5 mi WNW 4.6 mph - - Rain Light Rain
8:50 AM 33.8 °F 23.2 °F 33.8 °F 100% 29.80 in 6.2 mi SSW 17.3 mph - N/A Rain Light Rain
9:00 AM 41 °F - 35 °F 73%  in 9 mi WNW 5.8 mph - - Rain Light Rain
9:50 AM 37.4 °F 27.2 °F 35.6 °F 93% 29.80 in 6.2 mi SW 19.6 mph - N/A Rain Light Rain
10:00 AM 44 °F - 34 °F 59%  in 9 mi WNW 3.5 mph - -   Overcast
10:50 AM 39.2 °F 29.3 °F 35.6 °F 87% 29.80 in 6.2 mi SW 20.7 mph - N/A   Mostly Cloudy
11:00 AM 44 °F - 38 °F 71%  in 9 mi WNW 6.9 mph - -   Partly Cloudy
11:50 AM 41.0 °F 31.6 °F 35.6 °F 81% 29.80 in 6.2 mi SSW 20.7 mph - N/A   Mostly Cloudy
12:00 PM 45 °F - 35 °F 58%  in 9 mi WNW 5.8 mph - -   Overcast
12:50 PM 41.0 °F 32.2 °F 33.8 °F 76% 29.80 in 6.2 mi SW 18.4 mph - N/A   Mostly Cloudy
1:00 PM 48 °F - 36 °F 52%  in 9 mi NW 6.9 mph - -   Mostly Cloudy
1:02 PM 39.2 °F 30.5 °F 33.8 °F 81% 29.80 in 5.6 mi WSW 16.1 mph - N/A Rain Light Rain
1:50 PM 41.0 °F 31.9 °F 35.6 °F 81% 29.80 in 6.2 mi SW 19.6 mph - N/A Rain Light Rain
2:00 PM 46 °F - 36 °F 57%  in 9 mi North 5.8 mph - -   Partly Cloudy
2:50 PM 41.0 °F 32.8 °F 35.6 °F 81% 29.80 in 6.2 mi WSW 16.1 mph - N/A   Mostly Cloudy
3:00 PM 44 °F - 38 °F 74%  in 6 mi WSW 3.5 mph - - Rain Light Rain Showers
3:50 PM 39.2 °F 30.5 °F 35.6 °F 87% 29.80 in 5.6 mi SW 16.1 mph - N/A Rain Light Rain
4:00 PM 43 °F - 37 °F 71%  in 9 mi WNW 4.6 mph - - Rain Light Rain Showers
4:17 PM 37.4 °F 29.8 °F 35.6 °F 93% 29.83 in 6.2 mi West 11.5 mph - N/A   Mostly Cloudy
4:50 PM 39.2 °F 32.5 °F 33.8 °F 81% 29.83 in 6.2 mi West 10.4 mph - N/A   Mostly Cloudy
5:00 PM 43 °F - 37 °F 74%  in 9 mi Calm Calm - -   Partly Cloudy
5:50 PM 39.2 °F 32.5 °F 32.0 °F 75% 29.83 in 6.2 mi West 10.4 mph - N/A   Mostly Cloudy
6:00 PM 41 °F - 37 °F 80%  in 9 mi Calm Calm - - Rain Light Rain Showers
6:50 PM 37.4 °F 33.8 °F 33.8 °F 87% 29.86 in 6.2 mi WSW 4.6 mph - N/A   Mostly Cloudy
7:00 PM 40 °F - 36 °F 82%  in 9 mi South 1.2 mph - -   Mostly Cloudy
7:50 PM 37.4 °F 32.8 °F 32.0 °F 81% 29.86 in 6.2 mi West 5.8 mph - N/A   Mostly Cloudy
8:00 PM 41 °F - 38 °F 83%  in 9 mi Calm Calm - -   Partly Cloudy
8:50 PM 35.6 °F 31.7 °F 32.0 °F 87% 29.86 in 5.0 mi WSW 4.6 mph - N/A Rain Light Rain
9:50 PM 33.8 °F 28.6 °F 32.0 °F 93% 29.86 in 6.2 mi SW 5.8 mph - N/A   Mostly Cloudy
10:50 PM 33.8 °F 29.6 °F 32.0 °F 93% 29.83 in 6.2 mi South 4.6 mph - N/A   Mostly Cloudy
11:50 PM 33.8 °F 28.6 °F 32.0 °F 93% 29.83 in 6.2 mi SW 5.8 mph - N/A   Mostly Cloudy